Location: Poughquag
(41.6090°N, 73.6820°W)
Time: 16:03:19
(UTC-05:00)

Envisat - Pass Details

Date: 25 January 2020
Orbit: 764 x 766 km, 98.1° (Epoch: 24 February)

Event Time Altitude Azimuth Distance (km) Brightness Sun altitude
Rises 19:08:00 0° 214° (SSW) 3,220 6.8 -23.6°
Reaches altitude 10° 19:11:25 10° 238° (WSW) 2,300 6.3 -24.3°
Maximum altitude 19:14:05 14° 270° (W) 2,019 6.1 -24.8°
Drops below altitude 10° 19:16:46 10° 302° (WNW) 2,309 6.2 -25.3°
Sets 19:20:14 0° 327° (NNW) 3,241 6.6 -25.9°
